Været på Ålesund Lufhavn, Vigra (ENAL)

 

Time for time, neste 48 timer:

Detaljert varsel fra yr.no - 48 timer

Vindprognose for Breisundet:

Vindvarsel

Upper Winds 3000 fot akkurat nå:

ENAL akkurat nå:

  • METAR: 210950Z 23016KT 9999 SCT033 14/07 Q1021
  • TAF: TAF 210800Z 2109/2118 24018KT 9999 -SHRA FEW020TCU SCT040 BECMG 2115/2118 VRB07KT